This demonstration page uses our WeatherBlox Daily Observations layout. Learn more.

Left ArrowRight Arrow

39.51506, -84.39828

Hourly Observations for August 10, 2016

Temp ( °F °C ) Dew Point ( °F °C ) Humidity (%) Winds ( mph kmh ) Pressure ( in mb ) Visibility ( mi km ) Precip ( " mm )
12:15 am 00:15 Mostly Cloudy 77 25.1 72 22 83 83 N N/A 30.03 1017 10 16 N/A
12:35 am 00:35 Mostly Cloudy 77 25.1 72 22 83 83 N N/A 30.03 1017 10 16 N/A
12:55 am 00:55 Mostly Cloudy 77 25.1 72 22 83 83 N N/A 30.03 1017 10 16 N/A
1:15 am 01:15 Mostly Cloudy 77 25.1 72 22 83 83 N N/A 30.03 1017 10 16 N/A
1:35 am 01:35 Partly Cloudy 76 24.6 71 21.6 83 83 N N/A 30.03 1017 10 16 N/A
1:55 am 01:55 Mostly Cloudy 77 25.1 72 22.1 83 83 N N/A 30.03 1017 10 16 N/A
2:15 am 02:15 Cloudy 76 24.5 71 21.5 83 83 N N/A 30.03 1017 10 16 N/A
2:35 am 02:35 Cloudy 77 25.1 72 22 83 83 N N/A 30.03 1017 10 16 N/A
2:55 am 02:55 Cloudy 77 25.1 72 22 83 83 S 3 6 30.03 1017 10 16 N/A
3:15 am 03:15 Cloudy 77 25.1 70 21 78 78 S 6 9 30.03 1017 10 16 N/A
3:35 am 03:35 Cloudy 77 25.1 69 20.8 77 77 S 3 6 30.03 1017 10 16 N/A
3:55 am 03:55 Cloudy 77 25.1 70 21.1 79 79 N N/A 30.03 1017 10 16 N/A
4:15 am 04:15 Cloudy 77 25.1 71 21.6 81 81 N N/A 30.03 1017 10 16 N/A
4:35 am 04:35 Cloudy 77 25.1 70 21 78 78 S 5 7 30.03 1017 10 16 N/A
4:55 am 04:55 Cloudy 77 25.1 70 21 78 78 SW 3 6 30.03 1017 10 16 N/A
5:15 am 05:15 Cloudy 77 25.1 70 21 78 78 S 5 7 30.03 1017 10 16 N/A
5:35 am 05:35 Cloudy 77 25.1 71 21.6 81 81 N N/A 30.03 1017 10 16 N/A
5:55 am 05:55 Cloudy 77 25.1 71 21.7 81 81 N N/A 30.03 1017 10 16 N/A
6:15 am 06:15 Cloudy 77 25.1 71 21.7 81 81 N N/A 30.06 1018 10 16 N/A
6:35 am 06:35 Cloudy 77 25.1 71 21.8 82 82 N 3 6 30.06 1018 10 16 N/A
6:55 am 06:55 Cloudy 77 25.1 72 22 83 83 N N/A 30.06 1018 10 16 N/A
7:15 am 07:15 Cloudy 77 25.1 71 21.7 81 81 N N/A 30.06 1018 10 16 N/A
7:35 am 07:35 Cloudy 77 25.1 71 21.7 81 81 N N/A 30.06 1018 10 16 N/A
7:55 am 07:55 Cloudy 77 25.1 71 21.7 81 81 N N/A 30.06 1018 10 16 N/A
8:15 am 08:15 Cloudy with Rain 77 25.1 71 21.5 81 81 N N/A 30.09 1019 7 11 N/A
8:35 am 08:35 Cloudy 77 25.1 71 21.6 81 81 N N/A 30.09 1019 10 16 N/A
8:55 am 08:55 Mostly Cloudy 77 25.1 71 21.5 81 81 N N/A 30.09 1019 10 16 N/A
9:15 am 09:15 Mostly Cloudy 80 26.5 73 22.7 80 80 N N/A 30.09 1019 10 16 N/A
9:35 am 09:35 Cloudy with Light Rain 80 26.5 73 22.5 79 79 N N/A 30.09 1019 4 6 N/A
9:55 am 09:55 Cloudy with Heavy Rain 78 25.5 71 21.8 80 80 SSW 5 7 30.12 1020 1 1 N/A
10:15 am 10:15 Cloudy with Rain 77 25.1 72 22 83 83 N N/A 30.12 1020 5 8 N/A
10:35 am 10:35 Mostly Cloudy 77 25.1 72 22 83 83 W 3 6 30.12 1020 10 16 N/A
10:55 am 10:55 Cloudy 77 25.1 72 22 83 83 N N/A 30.12 1020 10 16 N/A
11:15 am 11:15 Cloudy 77 25.1 72 22 83 83 N N/A 30.12 1020 10 16 N/A
11:35 am 11:35 Cloudy with Light Rain 77 25.1 72 22 83 83 N N/A 30.12 1020 10 16 N/A
11:55 am 11:55 Cloudy with Light Rain 77 25.2 72 22 82 82 ENE 3 6 30.15 1021 10 16 N/A
12:15 pm 12:15 Cloudy 78 25.6 72 22.3 82 82 E 5 7 30.15 1021 10 16 N/A
12:35 pm 12:35 Partly Cloudy 80 26.5 73 23 81 81 NE 3 6 30.12 1020 10 16 N/A
12:55 pm 12:55 Sunny 80 26.5 73 22.6 79 79 NE 3 6 30.12 1020 10 16 N/A
1:15 pm 13:15 Sunny 81 27.2 73 22.7 76 76 N N/A 30.12 1020 10 16 N/A
1:35 pm 13:35 Sunny 82 28 73 22.9 74 74 N N/A 30.12 1020 10 16 N/A
1:55 pm 13:55 Sunny 84 28.8 74 23.1 71 71 SSE 5 7 30.09 1019 10 16 N/A
2:15 pm 14:15 Sunny 84 29.1 73 22.7 68 68 SW 6 9 30.06 1018 10 16 N/A
2:35 pm 14:35 Sunny 84 28.8 73 22.7 70 70 WSW 6 9 30.09 1019 10 16 N/A
2:55 pm 14:55 Mostly Cloudy with Light Rain 83 28.2 74 23.1 74 74 W 3 6 30.09 1019 10 16 N/A
3:15 pm 15:15 Cloudy with Light Rain 82 28 75 23.7 78 78 SW 3 6 30.09 1019 10 16 N/A
3:35 pm 15:35 Cloudy with Light Rain 81 27.2 72 22.3 75 75 N N/A 30.09 1019 10 16 N/A
3:55 pm 15:55 Partly Cloudy 81 27.2 73 22.5 76 76 N N/A 30.09 1019 10 16 N/A
4:15 pm 16:15 Sunny 81 27.2 73 22.8 77 77 N N/A 30.09 1019 10 16 N/A
4:35 pm 16:35 Sunny 82 28 74 23.5 77 77 N N/A 30.09 1019 10 16 N/A
4:55 pm 16:55 Sunny 82 28 74 23.3 76 76 N 3 6 30.09 1019 10 16 N/A
5:15 pm 17:15 Mostly Cloudy 83 28.2 74 23.3 75 75 NNW 3 6 30.09 1019 10 16 N/A
5:35 pm 17:35 Mostly Cloudy 82 28 74 23.5 77 77 NNW 5 7 30.09 1019 10 16 N/A
5:55 pm 17:55 Partly Cloudy 82 28 74 23.5 77 77 N N/A 30.06 1018 10 16 N/A
6:15 pm 18:15 Partly Cloudy 82 28 75 23.9 78 78 N N/A 30.06 1018 10 16 N/A
6:35 pm 18:35 Partly Cloudy 82 28 75 24 79 79 N N/A 30.06 1018 10 16 N/A
6:55 pm 18:55 Partly Cloudy with Light Rain 81 27.2 74 23.1 78 78 W 6 9 30.06 1018 10 16 N/A
7:15 pm 19:15 Partly Cloudy 81 27.2 73 22.8 77 77 N N/A 30.06 1018 10 16 N/A
7:35 pm 19:35 Mostly Cloudy 81 27.2 73 22.7 76 76 N N/A 30.06 1018 10 16 N/A
7:55 pm 19:55 Partly Cloudy 81 27.1 73 22.8 77 77 NW 5 7 30.06 1018 10 16 N/A
8:15 pm 20:15 Partly Cloudy 80 26.5 72 22 76 76 N 6 9 30.09 1019 10 16 N/A
8:35 pm 20:35 Sunny 80 26.5 72 22 76 76 NNE 3 6 30.09 1019 10 16 N/A
8:55 pm 20:55 Clear 80 26.5 72 22.2 77 77 N N/A 30.06 1018 10 16 N/A
9:15 pm 21:15 Clear 79 26.1 72 22.3 80 80 N N/A 30.06 1018 10 16 N/A
9:35 pm 21:35 Clear 77 25.1 72 22 83 83 WNW 3 6 30.06 1018 10 16 N/A
9:55 pm 21:55 Clear 77 25.1 72 22.3 85 85 N N/A 30.06 1018 10 16 N/A
10:15 pm 22:15 Clear 77 25.1 72 22.2 84 84 N N/A 30.06 1018 10 16 N/A
10:35 pm 22:35 Clear 77 25.1 72 22.3 85 85 N N/A 30.06 1018 10 16 N/A
10:55 pm 22:55 Clear 76 24.7 71 21.9 84 84 N N/A 30.09 1019 10 16 N/A
11:15 pm 23:15 Partly Cloudy 77 24.8 72 22.2 86 86 N N/A 30.09 1019 10 16 N/A
11:35 pm 23:35 Partly Cloudy 75 23.9 70 21.2 85 85 N N/A 30.09 1019 10 16 N/A
11:55 pm 23:55 Clear 74 23.6 70 21 85 85 N N/A 30.06 1018 7 11 N/A

Powered by AerisWeather